time_stamp(utc),avg(mph),gust(mph),direction(deg),12m_air_temp(f),sonic_u(cm/s),sonic_v(cm/s),sonic_w(cm/s),pressure,2m_air_temp(f),pyranometer(W/m^2)
"2021-06-24 00:02:39+00",8.3,10.3,,66.2,-14,-338,-18,1024.35,66.1,0
"2021-06-24 00:07:39+00",6.0,7.0,,66.1,-50,-241,-3,1024.36,65.9,0
"2021-06-24 00:12:39+00",8.8,10.8,,66,-52,-373,-15,1024.39,65.7,0
"2021-06-24 00:17:39+00",7.6,9.6,,65.8,-32,-323,-19,1024.42,65.5,0
"2021-06-24 00:22:39+00",7.1,9.1,,65.7,9,-297,-13,1024.47,65.3,0
"2021-06-24 00:27:39+00",6.6,7.6,,65.6,-28,-269,-9,1024.53,65,0
"2021-06-24 00:32:39+00",6.3,7.3,,65.4,-53,-255,-3,1024.56,64.8,0
"2021-06-24 00:37:39+00",7.0,8.0,,65.2,-50,-297,-18,1024.61,64.6,0
"2021-06-24 00:42:39+00",7.6,9.6,,65.2,-43,-319,-35,1024.64,64.5,0
"2021-06-24 00:47:39+00",7.1,9.1,,65.1,-53,-295,-26,1024.7,64.5,0
"2021-06-24 00:52:39+00",6.2,8.2,,65,-77,-253,-35,1024.76,64.3,0
"2021-06-24 00:57:39+00",6.4,7.4,,65,-85,-235,-47,1024.73,64.2,0
"2021-06-24 01:02:39+00",6.7,8.7,,65,-54,-281,-35,1024.78,64.3,0
"2021-06-24 01:07:39+00",6.0,8.0,,65,-91,-231,-40,1024.86,64.2,0
"2021-06-24 01:12:39+00",4.8,7.8,,64.9,-63,-182,-35,1024.93,64.1,0
"2021-06-24 01:17:39+00",6.9,7.9,,65,-128,-258,-60,1024.97,64.1,0
"2021-06-24 01:22:39+00",6.6,8.6,,65,-111,-258,-55,1025.06,64,0
"2021-06-24 01:27:39+00",7.3,8.3,,65.2,-157,-272,-48,1025.08,64,0
"2021-06-24 01:32:39+00",6.5,8.5,,65,-91,-252,-52,1025.27,64,0
"2021-06-24 01:37:39+00",6.6,7.6,,64.9,-105,-251,-43,1025.18,64,0
"2021-06-24 01:42:39+00",6.5,8.5,,64.9,-106,-252,-52,1025.17,63.9,0
"2021-06-24 01:47:39+00",5.8,7.8,,64.6,-79,-228,-45,1025.24,63.7,0
"2021-06-24 01:52:39+00",5.8,6.8,,64.6,-101,-229,-52,1025.35,63.6,0
"2021-06-24 01:57:39+00",5.7,6.7,,64.5,-67,-212,-42,1025.4,63.3,0
"2021-06-24 02:02:39+00",6.5,7.5,,64.4,-73,-248,-51,1025.6,63.3,0
"2021-06-24 02:07:39+00",6.5,7.5,,64.4,-63,-259,-58,1025.59,63.3,0
"2021-06-24 02:12:39+00",6.0,7.0,,64.4,-71,-243,-51,1025.65,63.4,0
"2021-06-24 02:17:39+00",5.9,6.9,,64.2,-75,-231,-46,1025.72,63.2,0
"2021-06-24 02:22:39+00",6.5,7.5,,64.3,-69,-250,-49,1025.72,63.1,0
"2021-06-24 02:27:39+00",6.2,7.2,,64.1,-58,-224,-42,1025.69,62.9,0
"2021-06-24 02:32:39+00",5.6,7.6,,64,-50,-225,-51,1025.77,62.8,0
"2021-06-24 02:37:39+00",6.5,7.5,,64.1,-72,-252,-56,1025.75,62.9,0
"2021-06-24 02:42:39+00",6.0,7.0,,64,-131,-219,-48,1025.7,62.6,0
"2021-06-24 02:47:39+00",7.3,7.3,,64,-80,-276,-65,1025.7,62.3,0
"2021-06-24 02:52:39+00",7.6,8.6,,64.2,-125,-286,-67,1025.75,62.4,0
"2021-06-24 02:57:39+00",7.2,8.2,,64.1,-148,-264,-58,1025.75,62.1,0
"2021-06-24 03:02:39+00",6.7,7.7,,64,-109,-252,-58,1025.69,62,0
"2021-06-24 03:07:39+00",6.8,7.8,,63.9,-102,-268,-60,1025.65,62,0
"2021-06-24 03:12:39+00",6.5,7.5,,64,-147,-235,-52,1025.65,61.9,0
"2021-06-24 03:17:39+00",7.2,8.2,,63.9,-79,-282,-59,1025.74,61.7,0
"2021-06-24 03:22:39+00",6.1,7.1,,64,-68,-244,-56,1025.71,62.1,0
"2021-06-24 03:27:39+00",6.5,7.5,,64.1,-105,-253,-35,1025.64,62.1,0
"2021-06-24 03:32:39+00",6.3,6.3,,64.1,-54,-254,-5,1025.71,62.1,0
"2021-06-24 03:37:39+00",6.4,7.4,,64.4,-107,-248,-3,1025.63,62.1,0
"2021-06-24 03:42:39+00",5.3,5.3,,64.4,-97,-207,0,1025.68,61.8,0
"2021-06-24 03:47:39+00",6.2,6.2,,64.5,-20,-256,-3,1025.71,62.1,0
"2021-06-24 03:52:39+00",6.2,6.2,,64.5,-94,-241,-3,1025.71,62.2,0
"2021-06-24 03:57:39+00",5.1,6.1,,64.4,-92,-197,0,1025.68,62.1,0
"2021-06-24 04:02:39+00",6.0,7.0,,64.6,-99,-237,-5,1025.71,61.9,0
"2021-06-24 04:07:39+00",6.3,6.3,,64.7,-88,-254,-8,1025.8,61.8,0
"2021-06-24 04:12:39+00",5.2,5.2,,64.6,-56,-208,-7,1025.88,61.9,0
"2021-06-24 04:17:39+00",5.9,5.9,,64.6,-60,-239,-5,1025.85,62.3,0
"2021-06-24 04:22:39+00",5.9,5.9,,64.6,-73,-235,-4,1025.79,62.4,0
"2021-06-24 04:27:39+00",5.3,5.3,,64.7,-107,-208,-2,1025.81,62.2,0
"2021-06-24 04:32:39+00",5.3,5.3,,64.6,-41,-217,-6,1025.89,62,0
"2021-06-24 04:37:39+00",5.3,5.3,,64.8,-7,-219,1,1025.97,62.3,0
"2021-06-24 04:42:39+00",5.3,5.3,,64.9,-12,-218,-2,1026,62.4,0
"2021-06-24 04:47:39+00",4.7,4.7,,65,-10,-189,-4,1025.92,62.6,0
"2021-06-24 04:52:39+00",4.4,4.4,,65,-2,-181,0,1026.04,62.8,0
"2021-06-24 04:57:39+00",4.3,4.3,,65,-18,-174,3,1026.06,62.8,0
"2021-06-24 05:02:39+00",3.7,4.7,,64.8,-7,-152,-5,1026.1,62.6,0
"2021-06-24 05:07:39+00",2.6,2.6,,64.3,82,-56,-5,1026.12,62.2,0
"2021-06-24 05:12:39+00",3.4,3.4,,64.1,35,-136,-9,1026.19,61.9,0
"2021-06-24 05:17:39+00",3.0,3.0,,64.3,74,-92,-6,1026.06,61.9,0
"2021-06-24 05:22:39+00",3.5,3.5,,64.3,9,-137,-5,1026.13,61.9,0
"2021-06-24 05:27:39+00",2.4,2.4,,64.5,30,-87,0,1026.29,62,0
"2021-06-24 05:32:39+00",2.5,3.5,,64.3,50,-79,-8,1026.25,61.9,0
"2021-06-24 05:37:39+00",3.4,3.4,,64.2,52,-122,-10,1026.2,61.8,0
"2021-06-24 05:42:39+00",2.7,2.7,,64.3,29,-99,-7,1026.2,61.8,0
"2021-06-24 05:47:39+00",2.3,2.3,,64.3,51,-70,-8,1026.27,61.7,0
"2021-06-24 05:52:39+00",3.2,3.2,,64.5,-58,-118,1,1026.16,61.5,0
"2021-06-24 05:57:39+00",2.9,2.9,,64.5,-58,-103,1,1026.18,61.4,0
"2021-06-24 06:02:39+00",2.7,2.7,,64.5,-21,-101,0,1026.16,61.3,0
"2021-06-24 06:07:39+00",2.9,2.9,,64.5,-52,-104,4,1026.16,61.4,0
"2021-06-24 06:12:39+00",1.9,2.9,,64.4,29,-65,-4,1026.26,61.7,0
"2021-06-24 06:17:39+00",1.4,2.4,,64.2,43,-22,-2,1026.14,61.7,0
"2021-06-24 06:22:39+00",2.0,2.0,,64.1,50,-53,-7,1026.16,61.5,0
"2021-06-24 06:27:39+00",2.3,3.3,,64.1,73,-57,-4,1026.14,61.8,0
"2021-06-24 06:32:39+00",2.3,3.3,,64.1,58,-67,-8,1026.01,61.6,0
"2021-06-24 06:37:39+00",1.8,1.8,,64.2,30,-56,-5,1026.08,61.5,0
"2021-06-24 06:42:39+00",1.3,1.3,,64.2,37,-21,0,1026.18,61.3,0
"2021-06-24 06:47:39+00",2.3,2.3,,64.2,27,-80,-4,1026.21,61.4,0
"2021-06-24 06:52:39+00",2.1,2.1,,64.3,66,-38,-5,1026.29,61.4,0
"2021-06-24 06:57:39+00",1.2,1.2,,64.2,7,-37,-1,1026.24,61.2,0
"2021-06-24 07:02:39+00",2.2,2.2,,64.2,71,-39,-3,1026.15,61,0
"2021-06-24 07:07:39+00",2.8,3.8,,64.3,14,-109,-4,1026.11,61,0
"2021-06-24 07:12:39+00",1.6,1.6,,64.3,49,-22,-3,1026.2,61,0
"2021-06-24 07:17:39+00",1.4,2.4,,64.2,47,3,-7,1026.26,61.2,0
"2021-06-24 07:22:39+00",0.8,0.8,,64.1,23,-13,-1,1026.27,61,0
"2021-06-24 07:27:39+00",1.5,1.5,,64,20,-47,-4,1026.2,60.8,0
"2021-06-24 07:32:39+00",0.6,0.6,,63.9,-2,-22,-5,1026.34,60.7,0
"2021-06-24 07:37:39+00",1.1,1.1,,63.9,26,-20,0,1026.47,60.6,0
"2021-06-24 07:42:39+00",0.0,0.0,,63.9,5,-6,-3,1026.43,60.8,0
"2021-06-24 07:47:39+00",1.4,2.4,,63.9,-10,-45,-3,1026.4,60.7,0
"2021-06-24 07:52:39+00",1.6,1.6,,64.1,-6,-57,0,1026.38,60.7,0
"2021-06-24 07:57:39+00",0.0,0.0,,64.1,-16,-3,-1,1026.38,60.7,0
"2021-06-24 08:02:39+00",4.6,5.6,,63.5,-93,165,0,1026.41,60.7,0
"2021-06-24 08:07:39+00",4.5,5.5,,62.9,-120,143,2,1026.35,60,0
"2021-06-24 08:12:39+00",3.2,3.2,,63,-93,97,-1,1026.29,59.5,0
"2021-06-24 08:17:39+00",3.8,3.8,,62.9,-96,126,1,1026.4,59.1,0
"2021-06-24 08:22:39+00",6.3,7.3,,63,-92,262,4,1026.37,58.9,0
"2021-06-24 08:27:39+00",5.0,5.0,,62.5,-76,196,2,1026.45,58.7,0
"2021-06-24 08:32:39+00",3.7,4.7,,62.7,-97,121,-2,1026.32,58.4,0
"2021-06-24 08:37:39+00",6.8,7.8,,62.7,-124,264,6,1026.31,58.1,0
"2021-06-24 08:42:39+00",6.8,7.8,,62.4,-41,293,-6,1026.29,57.8,0
"2021-06-24 08:47:39+00",5.3,5.3,,62.8,-57,218,-7,1026.37,57.4,0
"2021-06-24 08:52:39+00",4.3,4.3,,63.1,-61,171,-3,1026.4,57.3,0
"2021-06-24 08:57:39+00",6.3,6.3,,62.3,-89,258,1,1026.56,57.3,0
"2021-06-24 09:02:39+00",7.1,7.1,,61.7,-54,303,-10,1026.65,57.2,0
"2021-06-24 09:07:39+00",4.5,4.5,,62.5,-29,187,-7,1026.56,57.1,0
"2021-06-24 09:12:39+00",4.1,4.1,,62.9,-1,170,-2,1026.7,57.2,0
"2021-06-24 09:17:39+00",4.4,4.4,,63,-9,180,1,1026.76,57.2,0
"2021-06-24 09:22:39+00",4.1,4.1,,63.1,-20,172,-7,1026.84,57.4,0
"2021-06-24 09:27:39+00",3.9,3.9,,63.3,-9,158,-6,1026.95,57.6,0
"2021-06-24 09:32:39+00",4.4,4.4,,63.3,11,183,-5,1027.03,57.6,0
"2021-06-24 09:37:39+00",4.1,4.1,,63.4,26,168,-2,1027.04,57.6,0
"2021-06-24 09:42:39+00",3.7,4.7,,63.4,37,136,-5,1027.03,57.8,0
"2021-06-24 09:47:39+00",4.1,4.1,,63.5,87,129,-4,1027.07,58,0
"2021-06-24 09:52:39+00",4.7,4.7,,63.4,95,168,-3,1027.08,58.2,0
"2021-06-24 09:57:39+00",4.3,4.3,,63.4,107,131,-6,1027.17,58.6,0
"2021-06-24 10:02:39+00",5.1,5.1,,63.4,95,192,0,1027.19,59.1,0
"2021-06-24 10:07:39+00",5.1,6.1,,63.4,98,191,2,1027.29,59.4,0
"2021-06-24 10:12:39+00",5.1,6.1,,63.3,99,191,0,1027.34,59.7,0
"2021-06-24 10:17:39+00",5.3,5.3,,63.4,117,168,-1,1027.4,59.9,0
"2021-06-24 10:22:39+00",4.9,4.9,,63.9,65,193,-2,1027.39,60.2,0
"2021-06-24 10:27:39+00",5.7,5.7,,64.1,92,225,2,1027.44,60.4,0
"2021-06-24 10:32:39+00",4.6,5.6,,64.1,65,173,0,1027.41,60.8,0
"2021-06-24 10:37:39+00",2.9,3.9,,64.2,39,105,2,1027.47,61,0
"2021-06-24 10:42:39+00",3.6,4.6,,64.2,54,132,-1,1027.58,61.4,0
"2021-06-24 10:47:39+00",3.6,4.6,,64.1,56,125,12,1027.63,61.9,0
"2021-06-24 10:52:39+00",4.1,5.1,,64.3,79,154,1,1027.56,62.6,0
"2021-06-24 10:57:39+00",4.7,5.7,,64.3,77,175,1,1027.72,63.1,0
"2021-06-24 11:02:39+00",3.7,4.7,,64.4,65,125,10,1027.61,63.7,0
"2021-06-24 11:07:39+00",4.9,5.9,,64.4,118,159,-2,1027.69,64.4,0
"2021-06-24 11:12:39+00",5.5,6.5,,64.5,185,157,2,1027.67,65,0
"2021-06-24 11:17:39+00",5.3,6.3,,64.6,185,132,13,1027.59,65.5,0
"2021-06-24 11:22:39+00",6.0,7.0,,64.8,201,168,21,1027.5,66.1,0
"2021-06-24 11:27:39+00",7.0,8.0,,64.9,219,201,9,1027.54,66.5,0
"2021-06-24 11:32:39+00",5.6,6.6,,65.3,168,164,13,1027.65,67,0
"2021-06-24 11:37:39+00",6.9,7.9,,65.5,252,168,16,1027.67,67.5,0
"2021-06-24 11:42:39+00",6.4,7.4,,65.5,222,168,14,1027.71,67.9,0
"2021-06-24 11:47:39+00",6.3,7.3,,65.7,241,134,4,1027.74,68.2,0
"2021-06-24 11:52:39+00",6.3,7.3,,66.1,250,135,14,1027.74,68.5,0
"2021-06-24 11:57:39+00",6.7,7.7,,66.3,217,187,-5,1027.76,68.7,0
"2021-06-24 12:02:39+00",5.7,6.7,,66.5,232,110,31,1027.77,69.1,0
"2021-06-24 12:07:39+00",6.7,7.7,,66.7,255,158,14,1027.89,69.6,0
"2021-06-24 12:12:39+00",7.0,8.0,,66.7,279,140,0,1027.82,70.1,0
"2021-06-24 12:17:39+00",7.7,8.7,,66.8,320,138,21,1027.83,70.4,0
"2021-06-24 12:22:39+00",8.0,9.0,,66.9,343,128,42,1027.73,70.6,0
"2021-06-24 12:27:39+00",8.9,9.9,,66.8,371,150,-2,1027.81,70.7,0
"2021-06-24 12:32:39+00",9.5,10.5,,66.8,412,120,24,1027.86,70.8,0
"2021-06-24 12:37:39+00",8.3,9.3,,66.8,361,114,40,1027.86,70.8,0
"2021-06-24 12:42:39+00",9.4,11.4,,67,418,80,-12,1027.87,70.8,0
"2021-06-24 12:47:39+00",8.3,10.3,,67,350,145,31,1027.96,70.9,0
"2021-06-24 12:52:39+00",8.3,9.3,,66.9,366,92,12,1027.87,71,0
"2021-06-24 12:57:39+00",8.1,10.1,,67.4,348,92,50,1027.84,71.2,0
"2021-06-24 13:02:39+00",11.0,13.0,,67.2,478,125,22,1027.98,71.2,0
"2021-06-24 13:07:39+00",10.0,12.0,,67.2,443,79,32,1027.99,71.3,0
"2021-06-24 13:12:39+00",11.3,12.3,,67.1,474,207,-4,1028.05,71.1,0
"2021-06-24 13:17:39+00",11.4,12.4,,67,496,149,19,1028.01,71.2,0
"2021-06-24 13:22:39+00",11.2,13.2,,67.1,485,146,22,1027.98,71.3,0
"2021-06-24 13:27:39+00",12.4,14.4,,67,555,109,20,1028.01,71.2,0
"2021-06-24 13:32:39+00",9.7,10.7,,67.3,428,77,93,1028.06,71.3,0
"2021-06-24 13:37:39+00",11.3,13.3,,67.3,476,209,37,1027.99,71.5,0
"2021-06-24 13:42:39+00",12.4,14.4,,67.3,534,192,30,1028.02,71.5,0
"2021-06-24 13:47:39+00",10.6,12.6,,67.5,436,213,41,1028.08,71.5,0
"2021-06-24 13:52:39+00",12.1,13.1,,67.3,516,187,30,1028.04,71.6,0
"2021-06-24 13:57:39+00",13.0,15.0,,67.5,563,189,47,1028.04,71.6,0
"2021-06-24 14:02:39+00",12.3,15.3,,67.8,554,126,54,1028.16,71.8,0
"2021-06-24 14:07:39+00",11.9,13.9,,67.8,509,164,46,1028.16,71.9,0
"2021-06-24 14:12:39+00",11.7,12.7,,68,447,269,69,1028.23,72.2,0
"2021-06-24 14:17:39+00",14.9,15.9,,67.8,658,182,44,1028.29,72.4,0
"2021-06-24 14:22:39+00",13.1,15.1,,67.5,562,216,38,1028.26,72,0
"2021-06-24 14:27:39+00",13.5,16.5,,67.7,602,103,40,1028.21,72.1,0
"2021-06-24 14:32:39+00",13.3,15.3,,67.5,579,172,64,1028.29,72.1,0
"2021-06-24 14:37:39+00",14.4,17.4,,67.4,645,102,39,1028.16,72,0
"2021-06-24 14:42:39+00",12.4,14.4,,67.2,529,178,20,1028.34,72,0
"2021-06-24 14:47:39+00",14.3,16.3,,67.2,620,190,21,1028.34,72.2,0
"2021-06-24 14:52:39+00",13.5,16.5,,67,593,165,19,1028.2,72.3,0
"2021-06-24 14:57:39+00",14.3,16.3,,67.4,596,245,32,1027.99,72.3,0
"2021-06-24 15:02:39+00",12.4,14.4,,67.4,550,107,36,1027.97,72.3,0
"2021-06-24 15:07:39+00",12.5,14.5,,67.9,542,143,56,1028.02,72.5,0
"2021-06-24 15:12:39+00",12.2,16.2,,68,509,195,26,1028.19,72.9,0
"2021-06-24 15:17:39+00",14.0,16.0,,67.5,611,182,49,1028.33,72.8,0
"2021-06-24 15:22:39+00",15.5,19.5,,67.5,674,161,10,1028.27,72.6,0
"2021-06-24 15:27:39+00",14.6,16.6,,67.6,650,117,52,1028.42,72.8,0
"2021-06-24 15:32:39+00",14.7,16.7,,67.6,664,125,23,1028.46,72.8,0
"2021-06-24 15:37:39+00",14.1,16.1,,67.4,605,179,17,1028.59,72.5,0
"2021-06-24 15:42:39+00",13.3,14.3,,67.5,582,151,32,1028.59,72.9,0
"2021-06-24 15:47:39+00",13.1,16.1,,67.5,526,261,32,1028.53,72.9,0
"2021-06-24 15:52:39+00",14.6,18.6,,67.9,628,269,43,1028.43,72.9,0
"2021-06-24 15:57:39+00",13.1,17.1,,68.2,569,215,61,1028.37,73.2,0
"2021-06-24 16:02:39+00",12.5,13.5,,68.1,536,197,68,1028.41,73.3,0
"2021-06-24 16:07:39+00",15.1,18.1,,68.4,668,166,25,1028.4,73.5,0
"2021-06-24 16:12:39+00",14.5,17.5,,67.6,655,140,42,1028.66,73.4,0
"2021-06-24 16:17:39+00",15.0,17.0,,67.7,674,81,53,1028.66,73.3,0
"2021-06-24 16:22:39+00",15.2,17.2,,67.9,670,124,48,1028.6,73.4,0
"2021-06-24 16:27:39+00",12.3,14.3,,68.1,526,190,65,1028.66,73.7,0
"2021-06-24 16:32:39+00",14.7,16.7,,68.1,666,88,14,1028.6,73.8,0
"2021-06-24 16:37:39+00",14.1,16.1,,68.4,642,72,35,1028.65,73.8,0
"2021-06-24 16:42:39+00",13.2,15.2,,68.1,598,95,53,1028.65,73.5,0
"2021-06-24 16:47:39+00",12.5,15.5,,68,553,136,44,1028.71,73.4,0
"2021-06-24 16:52:39+00",12.6,15.6,,68.6,537,195,67,1028.65,73.6,0
"2021-06-24 16:57:39+00",13.7,15.7,,68.4,533,326,44,1028.51,73.4,0
"2021-06-24 17:02:39+00",11.7,14.7,,68.6,463,238,37,1028.52,73.6,0
"2021-06-24 17:07:39+00",16.0,18.0,,68.7,672,294,28,1028.26,73.8,0
"2021-06-24 17:12:39+00",15.3,16.3,,68.3,601,348,16,1028.26,73.6,0
"2021-06-24 17:17:39+00",14.5,18.5,,68.4,652,117,71,1028.31,73.6,0
"2021-06-24 17:22:39+00",16.4,18.4,,68.4,747,115,23,1028.2,73.7,0
"2021-06-24 17:27:39+00",15.0,19.0,,68.2,675,91,47,1028.22,73.7,0
"2021-06-24 17:32:39+00",16.5,18.5,,68.2,725,186,27,1028.06,73.8,0
"2021-06-24 17:37:39+00",14.5,17.5,,68.2,643,179,31,1027.98,73.8,0
"2021-06-24 17:42:39+00",13.6,15.6,,68.8,574,234,69,1027.98,74,0
"2021-06-24 17:47:39+00",15.5,18.5,,68.8,681,204,25,1027.91,74.2,0
"2021-06-24 17:52:39+00",15.4,17.4,,68.2,675,151,42,1027.79,73.9,0
"2021-06-24 17:57:39+00",11.6,14.6,,69,486,188,83,1027.8,74,0
"2021-06-24 18:02:39+00",14.7,17.7,,68.6,665,152,46,1027.71,74.1,0
"2021-06-24 18:07:39+00",14.9,16.9,,68.5,664,183,31,1027.61,73.9,0
"2021-06-24 18:12:39+00",15.9,17.9,,68.3,724,72,11,1027.62,73.9,0
"2021-06-24 18:17:39+00",15.6,17.6,,68.1,690,140,44,1027.81,73.5,0
"2021-06-24 18:22:39+00",16.0,20.0,,68.4,707,159,79,1027.65,73.6,0
"2021-06-24 18:27:39+00",16.4,20.4,,68.5,744,88,34,1027.49,73.8,0
"2021-06-24 18:32:39+00",15.6,17.6,,68.4,667,297,31,1027.37,73.8,0
"2021-06-24 18:37:39+00",15.2,18.2,,68.8,684,159,43,1027.38,73.9,0
"2021-06-24 18:42:39+00",14.5,17.5,,68.4,651,119,39,1027.41,73.9,0
"2021-06-24 18:47:39+00",15.4,18.4,,68.8,684,110,75,1027.56,73.7,0
"2021-06-24 18:52:39+00",13.1,17.1,,68.6,568,170,55,1027.61,73.7,0
"2021-06-24 18:57:39+00",15.5,17.5,,68.7,674,220,50,1027.53,73.8,0
"2021-06-24 19:02:39+00",13.8,15.8,,68.2,624,114,27,1027.48,73.7,0
"2021-06-24 19:07:39+00",16.8,18.8,,68.1,756,141,15,1027.37,73.8,0
"2021-06-24 19:12:39+00",16.7,19.7,,68.3,701,295,15,1027.36,73.6,0
"2021-06-24 19:17:39+00",13.5,16.5,,68.7,611,157,60,1027.29,73.7,0
"2021-06-24 19:22:39+00",13.8,16.8,,68.5,564,260,37,1027.16,73.7,0
"2021-06-24 19:27:39+00",17.5,19.5,,68.6,788,149,43,1027.09,73.9,0
"2021-06-24 19:32:39+00",15.1,18.1,,68.6,634,274,37,1027.11,73.7,0
"2021-06-24 19:37:39+00",16.4,19.4,,68.4,734,144,31,1027.05,73.6,0
"2021-06-24 19:42:39+00",14.8,16.8,,68.6,654,169,90,1026.89,73.7,0
"2021-06-24 19:47:39+00",17.6,20.6,,68.3,776,171,38,1026.91,73.6,0
"2021-06-24 19:52:39+00",13.3,15.3,,68.3,559,230,27,1026.86,73.4,0
"2021-06-24 19:57:39+00",16.9,19.9,,68.3,759,164,28,1026.8,73.4,0
"2021-06-24 20:02:39+00",16.3,18.3,,68.1,712,150,33,1026.82,73.6,0
"2021-06-24 20:07:39+00",16.5,19.5,,68.3,725,162,29,1026.75,73.6,0
"2021-06-24 20:12:39+00",17.5,21.5,,68.1,712,383,24,1026.5,73.3,0
"2021-06-24 20:17:39+00",17.3,20.3,,68.3,737,329,20,1026.28,73.3,0
"2021-06-24 20:22:39+00",18.2,22.2,,68,735,366,21,1026.15,72.9,0
"2021-06-24 20:27:39+00",18.6,20.6,,68.1,847,124,63,1025.92,72.6,0
"2021-06-24 20:32:39+00",16.1,18.1,,68.4,719,145,24,1025.9,72.7,0
"2021-06-24 20:37:39+00",18.4,21.4,,68.2,799,281,61,1025.97,72.8,0
"2021-06-24 20:42:39+00",17.4,20.4,,68,748,267,13,1025.89,72.6,0
"2021-06-24 20:47:39+00",15.7,18.7,,68,662,272,56,1025.83,72.5,0
"2021-06-24 20:52:39+00",16.5,19.5,,67.8,662,323,40,1025.66,72.3,0
"2021-06-24 20:57:39+00",16.2,19.2,,67.9,723,138,64,1025.49,72.2,0
"2021-06-24 21:02:39+00",18.8,21.8,,67.6,821,218,43,1025.5,72.1,0
"2021-06-24 21:07:39+00",17.5,20.5,,67.8,776,257,45,1025.47,71.9,0
"2021-06-24 21:12:39+00",16.5,18.5,,67.7,725,206,53,1025.53,71.9,0
"2021-06-24 21:17:39+00",17.0,20.0,,67.9,758,251,20,1025.44,71.9,0
"2021-06-24 21:22:39+00",17.2,19.2,,68,748,236,32,1025.53,71.9,0
"2021-06-24 21:27:39+00",18.2,22.2,,67.7,815,222,47,1025.52,71.8,0
"2021-06-24 21:32:39+00",18.8,21.8,,67.4,822,271,32,1025.56,71.8,0
"2021-06-24 21:37:39+00",18.2,20.2,,67.4,777,365,12,1025.76,71.4,0
"2021-06-24 21:42:39+00",16.6,19.6,,67.6,680,315,41,1025.79,71.4,0
"2021-06-24 21:47:39+00",13.8,16.8,,67.8,583,205,59,1025.8,71.2,0
"2021-06-24 21:52:39+00",17.3,19.3,,67.4,670,388,6,1025.68,71,0
"2021-06-24 21:57:39+00",17.8,21.8,,67.5,775,284,32,1025.52,70.9,0
"2021-06-24 22:02:39+00",17.9,19.9,,67.3,807,135,44,1025.7,70.7,0
"2021-06-24 22:07:39+00",15.2,18.2,,67.3,599,338,25,1025.77,70.5,0
"2021-06-24 22:12:39+00",18.0,20.0,,67.2,783,299,27,1025.63,70.5,0
"2021-06-24 22:17:39+00",14.7,17.7,,67.3,639,249,55,1025.7,70.4,0
"2021-06-24 22:22:39+00",15.6,18.6,,67.5,671,240,36,1025.68,70.4,0
"2021-06-24 22:27:39+00",14.1,17.1,,67.3,617,201,51,1025.53,70.3,0
"2021-06-24 22:32:39+00",15.8,18.8,,67.3,669,274,47,1025.53,70.1,0
"2021-06-24 22:37:39+00",17.1,18.1,,67.2,749,218,51,1025.51,70,0
"2021-06-24 22:42:39+00",17.9,19.9,,67,781,270,44,1025.43,70,0
"2021-06-24 22:47:39+00",16.0,19.0,,67,708,227,42,1025.64,69.8,0
"2021-06-24 22:52:39+00",13.7,16.7,,67.3,558,299,41,1025.59,69.8,0
"2021-06-24 22:57:39+00",14.6,16.6,,67.1,619,239,15,1025.51,69.7,0
"2021-06-24 23:02:39+00",14.1,16.1,,67.1,572,272,62,1025.66,69.5,0
"2021-06-24 23:07:39+00",13.5,16.5,,66.9,567,245,58,1025.57,69.4,0
"2021-06-24 23:12:39+00",16.0,19.0,,66.7,704,228,38,1025.48,69.3,0
"2021-06-24 23:17:39+00",12.0,16.0,,66.7,491,216,48,1025.47,69,0
"2021-06-24 23:22:39+00",16.0,18.0,,66.7,695,229,52,1025.58,68.9,0
"2021-06-24 23:27:39+00",15.2,17.2,,66.7,660,238,62,1025.59,68.8,0
"2021-06-24 23:32:39+00",13.4,15.4,,66.6,521,312,22,1025.66,68.6,0
"2021-06-24 23:37:39+00",14.1,16.1,,66.4,504,376,-12,1025.71,68.3,0
"2021-06-24 23:42:39+00",13.7,15.7,,66.3,551,302,-29,1025.56,68.1,0
"2021-06-24 23:47:39+00",14.6,16.6,,66.3,577,334,-10,1025.68,67.9,0
"2021-06-24 23:52:39+00",12.0,14.0,,66.3,438,315,-24,1025.76,67.6,0
"2021-06-24 23:57:39+00",11.4,13.4,,66.3,437,285,-5,1025.74,67.6,0
